カタログに戻る

FENGYUN 1C DEB

LostSSO
NORAD 31268·DEBRIS·🇨🇳 China

打ち上げ May 10, 1999 から Taiyuan Satellite Launch Center

Loading…

次のパス (今後24時間)

TLE

古いSource: Space-Track

元期: Aug 9, 2026, 08:19 UTC

1 31268U 99025BNA 26221.34680680  .00000453  00000-0  29434-3 0  9990
2 31268  98.7335 260.5468 0047902 227.8337 131.8760 14.06905590654013

AllMySatでFENGYUN 1C DEBをリアルタイム追跡

Download on the App Store